This is the latest recevied weather packets stored in our database for station/object OE9MNR-10. If no packets are shown the sender has not sent any weather packets the latest 10 day(s).
| Time | Temp. | Humidity | Pressure | Rain* | Wind** | Luminosity | Snow |
|---|---|---|---|---|---|---|---|
| 1787399359 | 20° C | 100% | 972.4 hPa | - | - | - | - |
| 1787399059 | 20° C | 100% | 972.4 hPa | - | - | - | - |
| 1787398459 | 20° C | 100% | 972.4 hPa | - | - | - | - |
| 1787398158 | 20.56° C | 100% | 972.3 hPa | - | - | - | - |
| 1787397858 | 20.56° C | 100% | 972.3 hPa | - | - | - | - |
| 1787397518 | 20.56° C | 100% | 972.2 hPa | - | - | - | - |
| 1787397218 | 20.56° C | 100% | 972.3 hPa | - | - | - | - |
| 1787396918 | 20.56° C | 100% | 972.3 hPa | - | - | - | - |
| 1787396618 | 19.44° C | 100% | 972.2 hPa | - | - | - | - |
| 1787396318 | 18.89° C | 100% | 972.3 hPa | - | - | - | - |
| 1787396018 | 17.78° C | 100% | 972.3 hPa | - | - | - | - |
| 1787395718 | 17.22° C | 100% | 972.2 hPa | - | - | - | - |
| 1787395118 | 17.22° C | 100% | 972.3 hPa | - | - | - | - |
| 1787394818 | 16.67° C | 100% | 972.3 hPa | - | - | - | - |
| 1787394518 | 16.67° C | 100% | 972.3 hPa | - | - | - | - |
| 1787394218 | 16.67° C | 100% | 972.3 hPa | - | - | - | - |
| 1787393918 | 16.67° C | 100% | 972.4 hPa | - | - | - | - |
| 1787393618 | 16.67° C | 100% | 972.4 hPa | - | - | - | - |
| 1787393318 | 16.67° C | 100% | 972.3 hPa | - | - | - | - |
| 1787393018 | 16.67° C | 100% | 972.3 hPa | - | - | - | - |
| 1787392718 | 16.67° C | 100% | 972.3 hPa | - | - | - | - |
| 1787392418 | 16.67° C | 100% | 972.3 hPa | - | - | - | - |
| 1787391818 | 16.67° C | 100% | 972.4 hPa | - | - | - | - |
| 1787391518 | 17.22° C | 100% | 972.4 hPa | - | - | - | - |
| 1787391218 | 17.22° C | 100% | 972.2 hPa | - | - | - | - |
* Rain since midnight (hover to see other rain measurements)
** Current wind speed in m/s (hover to see current wind gust speed)